TimeCDT,TemperatureF,Dew PointF,Humidity,Sea Level PressureIn,VisibilityMPH,Wind Direction,Wind SpeedMPH,Gust SpeedMPH,PrecipitationIn,Events,Conditions,WindDirDegrees,DateUTC
12:14 AM,50.2,25.9,39,29.83,10.0,NNW,9.2,20.7,N/A,,Mostly Cloudy,330,2012-10-11 05:14:00
12:54 AM,45.5,24.6,44,29.81,10.0,Calm,Calm,-,N/A,,Mostly Cloudy,0,2012-10-11 05:54:00
1:13 AM,45.1,24.8,45,29.81,10.0,Calm,Calm,-,N/A,,Mostly Cloudy,0,2012-10-11 06:13:00
1:54 AM,43.9,25.3,48,29.83,10.0,North,4.6,-,N/A,,Mostly Cloudy,350,2012-10-11 06:54:00
2:13 AM,43.7,25.7,49,29.84,10.0,North,6.9,-,N/A,,Scattered Clouds,360,2012-10-11 07:13:00
2:34 AM,43.0,25.7,51,29.85,10.0,North,5.8,-,N/A,,Mostly Cloudy,360,2012-10-11 07:34:00
2:53 AM,42.8,25.9,51,29.87,10.0,North,9.2,-,N/A,,Mostly Cloudy,360,2012-10-11 07:53:00
3:14 AM,42.3,26.6,54,29.88,10.0,North,9.2,-,N/A,,Overcast,360,2012-10-11 08:14:00
3:33 AM,41.2,31.3,68,29.90,10.0,North,11.5,-,N/A,,Mostly Cloudy,360,2012-10-11 08:33:00
3:54 AM,39.4,33.4,79,29.91,10.0,North,11.5,-,N/A,,Mostly Cloudy,360,2012-10-11 08:54:00
4:14 AM,38.7,33.3,81,29.94,10.0,North,13.8,23.0,N/A,,Scattered Clouds,360,2012-10-11 09:14:00
4:33 AM,38.5,33.1,81,29.94,10.0,North,10.4,-,N/A,,Scattered Clouds,10,2012-10-11 09:33:00
4:54 AM,38.5,33.3,81,29.95,10.0,North,8.1,-,N/A,,Scattered Clouds,360,2012-10-11 09:54:00
5:13 AM,38.5,33.6,83,29.97,10.0,North,8.1,-,N/A,,Mostly Cloudy,360,2012-10-11 10:13:00
5:33 AM,38.5,33.8,83,29.98,10.0,North,4.6,-,N/A,,Overcast,360,2012-10-11 10:33:00
5:53 AM,38.5,33.8,83,30.00,10.0,NNW,9.2,-,N/A,,Mostly Cloudy,340,2012-10-11 10:53:00
6:14 AM,37.9,32.9,82,30.01,10.0,North,6.9,-,N/A,,Scattered Clouds,350,2012-10-11 11:14:00
6:34 AM,38.1,32.9,81,30.02,10.0,North,8.1,-,N/A,,Mostly Cloudy,350,2012-10-11 11:34:00
6:53 AM,38.1,32.7,81,30.04,10.0,North,9.2,-,N/A,,Mostly Cloudy,350,2012-10-11 11:53:00
7:14 AM,37.9,32.0,79,30.04,10.0,North,9.2,-,N/A,,Mostly Cloudy,360,2012-10-11 12:14:00
7:34 AM,37.6,32.0,80,30.08,10.0,NNW,5.8,-,N/A,,Clear,340,2012-10-11 12:34:00
7:53 AM,37.0,32.0,82,30.09,10.0,NNW,4.6,-,N/A,,Clear,340,2012-10-11 12:53:00
8:13 AM,37.0,32.0,82,30.10,10.0,NNW,4.6,-,N/A,,Clear,330,2012-10-11 13:13:00
8:34 AM,36.9,32.0,83,30.11,10.0,NNW,5.8,-,N/A,,Clear,330,2012-10-11 13:34:00
8:54 AM,37.6,32.0,80,30.13,10.0,NNW,9.2,-,N/A,,Clear,330,2012-10-11 13:54:00
9:13 AM,38.1,32.0,79,30.14,10.0,NNW,10.4,17.3,N/A,,Scattered Clouds,340,2012-10-11 14:13:00
9:33 AM,37.9,31.6,78,30.15,10.0,NNW,9.2,-,N/A,,Scattered Clouds,340,2012-10-11 14:33:00
9:54 AM,38.3,30.4,73,30.16,10.0,North,9.2,-,N/A,,Clear,360,2012-10-11 14:54:00
10:13 AM,39.7,27.7,62,30.17,10.0,North,10.4,17.3,N/A,,Clear,350,2012-10-11 15:13:00
10:33 AM,40.8,26.4,57,30.18,10.0,NNW,11.5,18.4,N/A,,Clear,340,2012-10-11 15:33:00
10:53 AM,41.5,25.5,53,30.19,10.0,NNW,10.4,16.1,N/A,,Clear,340,2012-10-11 15:53:00
11:13 AM,42.8,23.0,46,30.19,10.0,NNW,11.5,21.9,N/A,,Clear,340,2012-10-11 16:13:00
11:34 AM,42.8,21.0,42,30.20,10.0,North,10.4,-,N/A,,Clear,360,2012-10-11 16:34:00
11:54 AM,42.8,19.9,40,30.21,10.0,North,13.8,21.9,N/A,,Clear,350,2012-10-11 16:54:00
12:13 PM,42.3,19.6,40,30.21,10.0,NNW,12.7,-,N/A,,Clear,330,2012-10-11 17:13:00
12:54 PM,43.7,17.2,35,30.22,10.0,NNW,10.4,17.3,N/A,,Clear,330,2012-10-11 17:54:00
1:13 PM,44.4,17.1,33,30.21,10.0,North,13.8,20.7,N/A,,Clear,350,2012-10-11 18:13:00
1:34 PM,43.9,16.5,33,30.22,10.0,NNW,15.0,18.4,N/A,,Clear,340,2012-10-11 18:34:00
1:54 PM,43.2,17.4,36,30.22,10.0,NNW,9.2,17.3,N/A,,Clear,330,2012-10-11 18:54:00
2:13 PM,46.0,16.7,31,30.22,10.0,NNW,13.8,18.4,N/A,,Clear,330,2012-10-11 19:13:00
2:34 PM,46.2,16.2,30,30.23,10.0,NW,11.5,18.4,N/A,,Clear,310,2012-10-11 19:34:00
2:53 PM,46.2,16.5,31,30.23,10.0,NW,11.5,20.7,N/A,,Clear,310,2012-10-11 19:53:00
3:13 PM,46.2,15.1,29,30.24,10.0,NNW,10.4,20.7,N/A,,Clear,340,2012-10-11 20:13:00
3:53 PM,46.8,14.4,27,30.25,10.0,NW,15.0,19.6,N/A,,Clear,320,2012-10-11 20:53:00
4:13 PM,45.7,16.7,31,30.25,10.0,NW,12.7,17.3,N/A,,Clear,320,2012-10-11 21:13:00
4:54 PM,43.9,17.4,35,30.26,10.0,NW,12.7,16.1,N/A,,Clear,320,2012-10-11 21:54:00
5:33 PM,43.7,17.6,35,30.27,10.0,NW,10.4,17.3,N/A,,Clear,320,2012-10-11 22:33:00
5:54 PM,43.0,17.6,36,30.28,10.0,NW,11.5,16.1,N/A,,Clear,320,2012-10-11 22:54:00
6:33 PM,41.0,18.7,41,30.29,10.0,NW,6.9,-,N/A,,Clear,310,2012-10-11 23:33:00
6:53 PM,39.7,18.3,42,30.30,10.0,NW,6.9,-,N/A,,Clear,310,2012-10-11 23:53:00
7:13 PM,38.5,18.5,45,30.30,10.0,NW,5.8,-,N/A,,Clear,310,2012-10-12 00:13:00
7:34 PM,37.4,18.5,46,30.31,10.0,NW,5.8,-,N/A,,Clear,320,2012-10-12 00:34:00
7:53 PM,36.5,18.7,49,30.32,10.0,NW,4.6,-,N/A,,Clear,310,2012-10-12 00:53:00
8:14 PM,35.6,19.0,51,30.33,10.0,Calm,Calm,-,N/A,,Clear,0,2012-10-12 01:14:00
8:34 PM,34.9,19.2,53,30.33,10.0,Calm,Calm,-,N/A,,Clear,0,2012-10-12 01:34:00
8:53 PM,34.5,18.9,53,30.34,10.0,Calm,Calm,-,N/A,,Clear,0,2012-10-12 01:53:00
9:14 PM,34.2,18.9,54,30.35,10.0,NW,3.5,-,N/A,,Clear,320,2012-10-12 02:14:00
9:34 PM,34.2,18.9,54,30.36,10.0,NNW,4.6,-,N/A,,Clear,330,2012-10-12 02:34:00
9:53 PM,33.4,18.5,54,30.36,10.0,Calm,Calm,-,N/A,,Clear,0,2012-10-12 02:53:00
10:14 PM,30.2,17.1,58,30.37,10.0,Calm,Calm,-,N/A,,Clear,0,2012-10-12 03:14:00
10:34 PM,27.9,16.9,63,30.38,10.0,Calm,Calm,-,N/A,,Clear,0,2012-10-12 03:34:00
10:53 PM,25.7,15.6,66,30.38,10.0,Calm,Calm,-,N/A,,Clear,0,2012-10-12 03:53:00
11:13 PM,24.6,15.4,68,30.39,10.0,Calm,Calm,-,N/A,,Clear,0,2012-10-12 04:13:00
11:34 PM,24.1,15.3,69,30.40,10.0,WSW,3.5,-,N/A,,Clear,240,2012-10-12 04:34:00
11:53 PM,23.2,15.6,73,30.41,10.0,WSW,4.6,-,N/A,,Clear,250,2012-10-12 04:53:00